Simultaneous Nadir Overpasses (SNOs) Predictions

Prediction of SNOs between LANDSAT-8 and METOP-B Satellite Orbit:

Table of predicted SNOs for the next 14.0 days since TLE Epoch: 12/11/2021
Index Date (LANDSAT-8) Time (LANDSAT-8) Lat,Lon (LANDSAT-8) SZA (LANDSAT-8 ) Date (METOP-B) Time (METOP-B) Lat,Lon (METOP-B) SZA (METOP-B ) Distance(km) Time Diff (sec)
1 12/11/2021 20:05:46 81.13, -81.53 106.27 12/11/2021 20:05:12 81.13, -81.53 106.26 0.55 34
2 12/11/2021 20:55:10 -81.17, 86.79 73.63 12/11/2021 20:55:49 -81.16, 86.77 73.62 0.76 39
3 12/14/2021 15:39:59 81.14, -14.80 106.46 12/14/2021 15:39:32 81.14, -14.89 106.44 1.65 27
4 12/14/2021 16:29:25 -81.17, 153.18 73.49 12/14/2021 16:30:11 -81.16, 153.04 73.49 2.46 46
5 12/17/2021 11:14:14 81.14, 51.53 106.53 12/17/2021 11:13:54 81.13, 51.36 106.51 2.95 20
6 12/17/2021 12:03:40 -81.16,-140.47 73.42 12/17/2021 12:04:32 -81.17,-140.32 73.38 2.62 52
7 12/20/2021 06:48:28 81.15, 118.19 106.59 12/20/2021 06:48:14 81.15, 118.35 106.60 2.69 14
8 12/20/2021 07:37:54 -81.17, -73.79 73.36 12/20/2021 07:38:53 -81.17, -73.70 73.33 1.56 59
9 12/23/2021 02:22:42 81.14,-175.56 106.53 12/23/2021 02:22:35 81.15,-175.45 106.55 2.04 7



Historial Predications of SNOs between LANDSAT-8 and METOP-B
